Regional Weather Roundup
Issued by NWS

Home | Current Version | Previous Version | Text Only | Print | Product List | Glossary On
Versions: 1 2 3 4 5 6 7 8 9 10 11 12 13 14 15 16 17 18 19 20 21 22 23 24 25 26 27 28 29 30 31 32 33 34 35 36 37 38 39 40 41 42 43 44 45 46 47 48 49 50
118
ASUS44 KLIX 291410
RWRLA
LOUISIANA WEATHER ROUNDUP
NATIONAL WEATHER SERVICE NEW ORLEANS LA
900 AM CDT TUE JUL 29 2014

NOTE: "FAIR" INDICATES FEW OR NO CLOUDS BELOW 12,000 FEET WITH NO
      SIGNIFICANT WEATHER AND/OR OBSTRUCTIONS TO VISIBILITY.
      SKY/WX - SKY CONDITION AND SIGNIFICANT WEATHER.
      TMP - AIR TEMPERATURE.    DP   - DEWPOINT TEMPERATURE.
      RH  - RELATIVE HUMIDITY.  PRES - PRESSURE.
      HX  - HEAT INDEX.         WCI  - WIND CHILL INDEX.

*  THESE STATIONS ARE NOT NWS OR FAA STATIONS AND ARE NOT UNDER
   NWS QUALITY CONTROL.

LAZ040-048-061>063-065-066-069-291500-
SOUTHEAST LOUISIANA

CITY           SKY/WX    TMP DP  RH WIND       PRES   REMARKS
N.O. AUDUBON     N/A     84  70  61 MISG        N/A
N.O. INTL ARPT CLOUDY    81  68  64 NE7       30.07R
N.O. LAKEFRONT PTSUNNY   80  68  66 NE7       30.07R
N.O. DOWNTOWN* PTSUNNY   81  63  54 NE6       30.07R
SLIDELL        PTSUNNY   77  69  76 N6        30.06R
BATON ROUGE    CLOUDY    79  68  69 VRB3      30.08S
BOOTHVILLE     PTSUNNY   82  72  71 NE8       30.05S
BELLE CHASSE   CLOUDY    83  69  62 VRB3      30.06S
BOGALUSA*      FAIR      78  67  70 CALM      30.09R
GALLIANO*      NOT AVBL
NEW ROADS*     CLOUDY    76  70  81 N3        30.09S
GONZALES*      CLOUDY    78  72  81 CALM      30.06F
HAMMOND*       PTSUNNY   77  68  73 N5        30.08F
HOUMA*         CLOUDY    81  72  74 N3        30.06F
PORT FOURCHON* CLOUDY    82  73  74 NW3       30.08R

$$

LAZ041-044-053-054-291500-
SOUTHWEST LOUISIANA

CITY           SKY/WX    TMP DP  RH WIND       PRES   REMARKS
LAKE CHARLES   CLOUDY    80  73  79 NE9       30.08R
LAFAYETTE      PTSUNNY   77  73  88 E6        30.08S
PATTERSON      CLOUDY    79  75  89 N6        30.10F
SALT POINT       N/A     81  77  88 CALM      30.05F
NEW IBERIA     CLOUDY    80  74  81 NE6       30.08S
CHENAULT AIRPK NOT AVBL

$$

LAZ027-028-291500-
CENTRAL LOUISIANA

CITY           SKY/WX    TMP DP  RH WIND       PRES   REMARKS
FORT POLK      PTSUNNY   78  69  73 E3        30.10S
ALEXANDRIA INT PTSUNNY   79  68  69 N3        30.09R
ALEXANDRIA     MOSUNNY   80  69  69 NE3       30.10R

$$

LAZ001-002-291500-
NORTHWEST LOUISIANA

CITY           SKY/WX    TMP DP  RH WIND       PRES   REMARKS
SHREVEPORT     MOSUNNY   81  69  67 N3        30.12R
BARKSDALE AFB  SUNNY     79  68  70 N5        30.12S
DTN SHREVEPORT SUNNY     78  69  73 CALM      30.12S

$$

LAZ014-016-291500-
NORTHEAST LOUISIANA

CITY           SKY/WX    TMP DP  RH WIND       PRES   REMARKS
MONROE         SUNNY     79  68  69 N7        30.11S
TALLULAH       SUNNY     78  69  73 N3        30.10R

$$




USA.gov is the U.S. government's official web portal to all federal, state and local government web resources and services.